Vorticity
4 3 3 3 3 4 4 4 4 5 5 6 6 6 6 7 7 7 7 7 7 7 7 7 7 7 7 8 8 7 7 7 7 7 7 7 7 7 8 8 8 8 8 8 8 8 8 8 8 8 8 8 8 8 8 8 8 8 8 9 9 8 8 8 8 8 8 8 8
4 3 3 3 4 4 4 4 5 5 6 6 6 6 6 7 7 7 7 7 7 7 7 7 7 7 7 7 7 7 7 7 7 7 7 7 7 7 7 7 8 8 8 8 8 9 9 9 9 9 9 9 9 9 9 9 9 9 9 9 9 9 9 9 9 9 8 8 8
3 4 4 4 4 4 5 5 5 5 6 6 6 6 7 7 7 7 7 7 7 7 7 7 7 7 7 7 7 7 7 7 7 7 7 7 6 6 7 7 7 7 8 8 9 9 9 9 10 10 9 9 9 9 9 9 10 10 10 10 9 9 9 10 9 9 9 9 9
3 4 4 4 4 4 4 4 5 5 6 6 6 6 7 6 7 7 7 7 7 7 8 7 7 7 7 7 7 7 7 7 7 7 7 7 6 6 6 6 6 7 7 8 8 9 9 10 10 10 10 10 10 10 10 9 10 10 10 10 10 10 10 10 10 10 10 10 9
4 4 4 4 4 4 4 4 5 5 6 6 6 6 7 6 7 7 7 7 8 8 7 7 7 7 7 7 7 7 7 7 7 7 7 7 7 6 6 6 6 6 6 7 7 8 9 9 10 10 10 10 10 10 10 10 10 10 10 10 11 11 11 11 11 11 10 10 10
3 4 4 4 4 4 4 4 5 5 5 6 6 6 6 6 7 7 7 8 7 7 7 8 8 8 8 8 8 7 7 7 7 7 7 7 7 7 6 6 6 5 5 6 6 7 7 8 9 9 10 10 10 10 10 10 10 10 10 11 11 11 11 11 11 11 11 10 10
3 3 4 4 4 4 4 4 4 5 5 5 6 6 6 6 7 7 7 7 7 8 8 8 8 8 8 8 8 7 7 7 7 7 7 7 7 7 7 6 6 6 5 5 6 6 7 7 8 8 8 9 9 9 9 10 10 10 10 11 11 11 12 12 11 11 11 11 10
3 3 3 4 4 4 4 4 4 4 5 5 5 6 6 6 7 7 7 7 8 8 8 8 8 8 8 8 7 7 7 7 7 7 7 7 7 7 7 7 6 6 5 5 6 6 6 7 7 7 8 8 9 9 9 10 10 10 11 11 11 12 12 12 11 11 11 11 10
3 3 4 4 4 4 4 4 4 4 4 5 5 5 6 6 7 7 7 8 8 8 8 8 8 8 8 7 7 7 7 7 7 7 7 7 7 7 7 7 6 6 6 6 6 6 6 6 7 7 7 8 8 8 9 10 10 11 11 11 11 12 12 12 12 11 11 11 10
4 4 4 4 4 4 4 4 4 4 4 5 5 5 6 6 7 7 8 8 8 8 8 8 8 8 8 7 7 7 7 7 7 7 7 7 7 7 7 7 6 6 6 6 6 6 6 6 7 7 7 8 8 8 9 10 10 11 11 11 11 11 12 12 12 11 11 11 10
4 4 4 4 4 4 4 4 4 4 5 5 5 5 6 6 7 7 7 7 8 8 8 8 7 7 7 7 7 7 7 7 7 7 7 7 7 7 7 6 6 6 6 6 6 6 6 6 7 7 7 8 8 8 9 10 11 11 11 11 12 12 12 12 12 11 11 11 10
4 4 4 4 4 4 4 4 4 4 5 5 5 6 6 6 7 7 7 7 8 8 7 7 7 7 7 7 7 7 7 7 7 7 7 7 7 6 6 6 6 6 6 6 6 6 6 6 6 7 7 7 8 9 9 9 10 11 11 11 12 12 12 11 11 11 11 11 10
4 4 4 4 4 4 4 4 4 4 5 5 5 6 6 6 7 7 7 7 7 7 7 7 7 6 6 6 7 7 7 7 7 7 6 6 6 6 6 6 6 6 6 6 6 6 6 6 6 7 7 7 8 8 9 10 10 11 11 11 12 12 12 11 11 11 11 11 10
4 4 4 4 4 4 4 4 4 4 4 5 5 6 6 6 7 7 7 7 7 7 7 7 7 6 6 6 6 6 6 6 6 6 6 6 6 6 6 6 5 5 6 6 6 6 6 6 7 7 7 7 8 8 9 10 10 11 11 11 11 11 11 11 11 11 10 10 10
5 4 4 4 4 4 4 4 4 4 4 5 5 5 6 6 7 7 7 7 7 7 7 6 6 6 6 6 6 6 6 6 6 6 6 6 6 6 6 6 5 6 6 6 6 6 6 6 7 7 7 8 8 8 9 10 10 11 11 11 11 11 11 11 11 11 10 10 9
5 4 4 4 4 4 4 4 4 4 4 5 5 6 6 7 7 7 7 7 7 7 6 6 6 6 6 6 5 5 5 5 5 5 5 5 5 5 5 5 5 6 6 6 6 6 6 7 7 7 8 8 8 9 9 10 10 11 11 11 11 11 11 10 10 10 10 10 9
5 4 4 4 4 4 4 4 4 4 4 5 5 6 6 7 7 7 7 7 7 7 6 6 6 6 6 6 5 5 5 5 5 5 5 5 5 5 5 5 6 6 6 6 6 6 7 7 7 8 8 8 9 9 9 10 10 11 11 11 11 11 10 10 10 10 10 9 9
4 4 4 4 4 4 4 4 4 4 5 5 6 6 7 7 7 7 7 7 7 6 6 6 6 6 6 6 5 5 5 5 5 5 5 5 6 6 6 6 6 6 6 7 7 7 7 7 8 8 8 9 9 9 10 10 10 11 11 11 11 10 10 10 10 9 9 8 8
4 4 4 4 4 4 4 4 4 4 5 5 6 6 7 7 7 7 7 7 6 6 6 6 6 5 5 5 5 5 5 5 5 5 6 6 6 6 6 6 6 6 7 7 7 7 8 8 8 8 9 9 9 10 10 10 10 10 10 10 10 10 10 9 9 8 8 7 7
4 4 4 4 4 4 4 4 4 5 5 6 6 7 7 7 7 7 6 6 6 5 5 5 5 5 5 5 5 5 5 6 6 6 6 7 7 7 7 7 7 7 7 8 8 8 8 8 8 9 9 9 9 9 10 10 10 10 10 10 10 9 9 9 8 8 7 7 6
4 4 4 4 4 4 4 4 4 5 5 6 6 7 7 7 7 6 6 6 5 5 5 5 5 5 5 5 6 6 6 6 7 7 7 7 8 8 8 8 8 8 8 8 8 9 9 9 9 9 9 10 10 9 9 9 9 10 10 9 9 9 8 8 8 7 7 6 6
4 4 4 4 4 4 4 4 5 5 6 6 7 7 7 7 6 6 6 5 5 4 4 4 4 5 5 6 6 6 6 7 8 8 8 8 9 9 8 9 9 9 9 9 9 9 9 9 10 10 10 10 10 9 9 9 9 9 9 9 9 8 8 7 7 6 6 6 6
4 4 4 4 4 4 4 5 5 6 6 7 7 7 7 6 6 6 5 5 4 4 4 4 4 5 5 6 6 7 7 8 8 9 9 9 9 9 9 10 10 10 10 9 9 9 10 10 10 10 10 10 9 9 9 9 9 9 8 8 8 8 7 7 6 6 6 6 6
4 4 4 4 4 4 4 5 6 6 7 7 7 6 6 6 5 5 5 4 4 4 4 4 5 5 5 6 7 8 8 8 9 9 10 10 10 10 10 11 11 11 10 10 10 10 10 10 10 10 10 10 9 9 9 9 8 8 8 8 7 7 7 6 6 6 6 6 6
4 4 4 4 4 5 5 6 6 6 7 7 6 6 6 5 5 4 4 4 4 4 4 5 5 5 6 7 8 8 9 9 9 9 10 10 11 11 11 11 11 11 11 10 11 11 11 11 10 10 10 10 9 9 9 9 8 8 8 7 7 7 6 6 6 6 6 6 6
4 4 4 4 5 5 5 6 6 6 6 6 6 5 5 5 4 4 4 4 4 4 5 5 6 6 7 8 8 9 10 10 10 10 10 10 11 12 12 12 12 11 11 11 11 11 11 11 11 10 10 9 9 9 8 8 8 8 7 7 7 6 6 6 6 6 6 6 6
4 4 4 4 5 5 6 6 6 6 6 6 5 5 5 4 4 4 4 4 5 5 5 6 7 8 9 9 10 10 10 11 11 11 11 11 11 12 12 12 12 12 12 12 12 12 11 11 11 10 10 9 9 8 8 8 8 8 7 7 7 6 6 6 6 6 6 5 5
5 5 5 5 5 6 6 6 6 6 6 5 5 4 4 4 4 4 4 5 5 6 7 8 9 9 10 11 11 11 11 11 12 12 12 12 12 12 12 12 12 12 12 12 12 12 11 11 11 10 10 9 9 8 8 8 8 7 7 7 7 7 6 6 6 5 5 5 4
5 5 5 5 5 6 6 6 6 5 5 5 4 4 4 4 4 5 5 6 7 8 9 10 10 11 11 12 12 12 12 12 13 12 13 13 13 13 13 13 13 13 13 13 12 12 11 11 11 10 9 9 8 8 8 8 7 7 7 7 7 6 6 6 6 5 5 4 4
5 5 5 5 5 6 6 5 5 5 4 4 4 4 4 5 5 6 7 8 9 10 10 10 10 12 13 12 12 13 13 14 13 13 14 14 14 14 14 14 13 13 13 13 12 12 11 11 10 10 9 9 8 8 8 7 7 7 7 7 6 6 6 6 5 5 4 4 4
5 5 5 5 5 5 5 5 5 4 4 4 4 5 5 6 7 8 9 10 11 11 11 11 12 13 13 13 13 14 14 14 14 15 15 14 14 14 14 14 14 13 13 13 12 11 11 10 10 9 9 9 8 8 8 7 7 6 6 6 6 6 5 5 5 4 4 4 4
6 6 5 5 5 4 4 4 4 5 5 5 6 6 7 8 9 10 11 11 11 12 13 15 15 15 14 15 15 15 15 15 15 15 15 15 15 14 14 14 14 13 13 12 11 11 10 10 9 9 8 8 8 8 7 7 6 6 6 5 5 5 5 4 4 4 4 4 4
6 5 5 5 4 4 4 4 5 5 6 6 7 8 9 10 11 12 13 13 14 15 15 16 16 16 16 16 16 16 16 16 15 15 15 15 15 14 14 14 13 13 12 11 10 10 9 9 8 8 8 7 7 7 6 6 6 5 5 5 4 4 4 4 4 4 4 4 4
5 5 4 4 4 4 4 5 6 7 7 8 10 11 11 12 13 14 15 16 16 17 17 16 16 16 16 15 15 16 16 16 16 15 15 14 14 13 13 12 12 11 10 10 9 8 8 8 7 7 7 6 6 6 5 5 5 5 4 4 4 4 4 4 4 4 4 5 5
5 4 4 4 4 5 6 7 7 8 9 10 12 13 14 15 15 16 16 17 17 18 18 18 17 16 16 16 16 16 15 15 15 14 13 13 12 11 11 10 10 9 9 8 7 7 7 6 6 6 5 5 5 4 4 4 4 4 4 4 4 4 4 5 5 5 5 6 6
4 4 5 5 6 7 8 8 9 10 11 12 14 15 16 17 18 18 17 17 18 18 18 17 17 16 16 16 15 15 14 13 12 12 11 11 10 10 9 9 8 7 7 6 6 6 5 5 5 4 4 4 4 4 3 3 3 4 4 4 4 4 5 5 5 6 6 6 7
5 6 6 7 9 9 10 10 10 12 13 15 16 17 18 18 19 19 18 18 18 18 17 16 16 15 15 14 13 13 12 11 10 10 10 9 8 8 7 7 6 6 5 5 5 4 4 4 3 3 3 3 3 3 3 3 3 4 4 4 4 5 5 5 6 6 6 7 7
7 8 9 10 11 11 11 11 12 14 16 18 19 20 20 19 18 18 17 17 16 15 15 14 14 14 13 12 11 11 10 9 9 8 8 7 6 6 6 5 5 4 4 4 3 3 3 3 3 3 2 2 3 3 3 3 3 3 4 4 4 4 5 5 6 6 7 7 7
9 10 11 12 12 11 12 13 15 16 18 19 20 20 20 18 16 15 14 14 13 13 13 13 13 12 12 11 10 9 9 8 7 6 6 5 5 4 4 4 4 3 3 2 2 2 2 2 2 2 2 2 2 2 2 3 3 3 3 4 4 4 5 5 6 7 7 8 8
10 11 11 11 11 12 13 15 16 18 18 19 19 19 17 15 13 12 12 12 12 12 12 12 12 11 10 9 8 8 7 6 5 4 4 4 3 3 2 2 2 2 2 2 2 2 2 2 2 2 1 1 2 2 2 2 2 3 3 3 4 4 5 5 6 7 8 8 9
10 10 11 11 12 13 15 17 17 17 17 18 18 16 14 11 10 11 11 12 12 11 11 11 11 10 9 8 7 6 5 5 4 3 3 2 2 2 2 2 2 2 2 2 1 1 1 1 1 1 1 1 1 2 2 2 2 3 3 3 4 4 5 6 7 8 9 10 10
Height
5747 5747 5746 5746 5745 5744 5744 5743 5743 5742 5741 5741 5740 5739 5738 5738 5737 5736 5735 5735 5734 5733 5733 5732 5731 5730 5729 5728 5728 5727 5726 5725 5725 5724 5723 5723 5721 5720 5719 5718 5718 5717 5716 5715 5714 5713 5712 5711 5710 5709 5708 5708 5707 5706 5705 5704 5703 5703 5702 5701 5700 5699 5698 5698 5697 5696 5695 5695 5694
5744 5744 5744 5743 5743 5742 5741 5741 5740 5739 5738 5738 5737 5737 5736 5735 5734 5733 5732 5732 5731 5730 5729 5728 5728 5727 5726 5725 5724 5724 5723 5722 5722 5721 5720 5719 5718 5718 5716 5715 5714 5713 5713 5712 5711 5710 5709 5708 5707 5706 5705 5705 5704 5703 5702 5701 5700 5699 5698 5698 5697 5696 5695 5694 5693 5693 5692 5691 5690
5742 5742 5741 5741 5740 5739 5739 5738 5738 5737 5736 5735 5734 5734 5733 5732 5731 5730 5729 5728 5728 5727 5726 5725 5725 5724 5723 5723 5722 5721 5720 5719 5718 5718 5717 5716 5715 5714 5713 5713 5712 5710 5709 5708 5708 5707 5706 5705 5704 5703 5702 5701 5701 5700 5699 5698 5697 5696 5695 5694 5693 5693 5692 5691 5690 5689 5688 5688 5687
5739 5739 5738 5738 5738 5737 5736 5736 5735 5734 5733 5733 5732 5731 5730 5729 5728 5727 5726 5725 5725 5724 5723 5722 5722 5721 5720 5719 5718 5718 5717 5716 5715 5714 5714 5713 5712 5711 5710 5709 5708 5708 5707 5706 5705 5704 5703 5702 5701 5700 5699 5698 5697 5696 5695 5695 5694 5693 5692 5691 5690 5689 5688 5688 5687 5686 5685 5684 5683
5737 5736 5736 5735 5735 5734 5733 5733 5732 5731 5730 5730 5729 5728 5727 5726 5725 5724 5723 5723 5722 5721 5720 5719 5718 5718 5717 5716 5715 5714 5713 5713 5712 5711 5710 5710 5709 5708 5707 5706 5705 5704 5703 5703 5702 5701 5700 5699 5698 5697 5696 5695 5694 5693 5692 5691 5690 5689 5688 5688 5687 5686 5685 5684 5683 5683 5682 5681 5680
5734 5733 5733 5732 5732 5731 5731 5730 5729 5728 5728 5727 5726 5725 5724 5723 5722 5721 5720 5719 5718 5718 5717 5716 5715 5714 5714 5713 5712 5711 5710 5709 5708 5708 5707 5706 5706 5705 5704 5703 5702 5701 5700 5699 5698 5698 5697 5696 5695 5694 5693 5692 5691 5690 5689 5688 5687 5686 5685 5684 5683 5682 5681 5680 5680 5679 5678 5677 5676
5731 5731 5730 5729 5729 5728 5728 5727 5726 5725 5725 5724 5723 5722 5721 5720 5719 5718 5717 5716 5715 5714 5713 5713 5712 5711 5710 5709 5709 5708 5707 5706 5705 5704 5704 5703 5702 5701 5701 5700 5699 5698 5697 5696 5695 5694 5693 5693 5692 5691 5689 5688 5688 5686 5685 5684 5683 5683 5682 5681 5680 5679 5678 5677 5676 5675 5674 5673 5673
5729 5728 5727 5727 5726 5725 5724 5724 5723 5723 5722 5721 5720 5719 5718 5717 5716 5715 5714 5713 5712 5711 5710 5709 5708 5708 5707 5706 5705 5704 5703 5703 5702 5701 5700 5699 5698 5698 5697 5696 5695 5695 5694 5693 5692 5691 5690 5689 5688 5687 5686 5685 5684 5683 5682 5681 5680 5679 5678 5677 5676 5675 5674 5673 5672 5671 5671 5670 5669
5726 5725 5724 5724 5723 5722 5722 5721 5720 5719 5719 5718 5717 5716 5714 5713 5713 5712 5711 5710 5709 5708 5707 5706 5705 5704 5703 5703 5702 5701 5700 5699 5698 5698 5697 5696 5695 5694 5693 5693 5692 5691 5690 5689 5688 5688 5687 5686 5685 5683 5683 5682 5680 5679 5678 5678 5676 5675 5674 5673 5672 5671 5670 5669 5668 5668 5667 5666 5665
5723 5722 5722 5721 5720 5719 5718 5718 5717 5716 5716 5715 5713 5713 5712 5710 5709 5708 5708 5707 5706 5705 5703 5703 5702 5701 5700 5699 5698 5697 5696 5696 5695 5694 5693 5692 5691 5691 5690 5689 5688 5688 5687 5686 5685 5684 5683 5682 5681 5680 5679 5678 5677 5676 5675 5674 5673 5672 5671 5670 5668 5668 5666 5665 5664 5664 5663 5662 5661
5720 5719 5719 5718 5717 5716 5715 5715 5714 5713 5713 5712 5711 5709 5708 5708 5706 5705 5704 5703 5702 5701 5700 5699 5698 5697 5696 5695 5694 5693 5693 5692 5691 5690 5689 5688 5688 5687 5686 5685 5684 5683 5683 5682 5681 5680 5679 5678 5677 5676 5675 5674 5673 5672 5671 5670 5669 5668 5667 5666 5665 5663 5663 5661 5661 5660 5659 5658 5658
5717 5716 5716 5715 5714 5713 5712 5712 5711 5710 5709 5708 5708 5706 5705 5704 5703 5702 5701 5700 5699 5698 5697 5695 5694 5693 5693 5692 5691 5690 5689 5688 5687 5686 5685 5684 5684 5683 5682 5681 5680 5680 5679 5678 5677 5676 5675 5674 5673 5672 5671 5670 5669 5668 5667 5666 5665 5664 5663 5662 5661 5660 5658 5657 5656 5656 5655 5654 5653
5713 5713 5713 5712 5711 5710 5709 5708 5708 5707 5706 5705 5704 5703 5702 5701 5700 5699 5698 5697 5696 5694 5693 5692 5691 5690 5689 5688 5687 5686 5685 5684 5683 5683 5682 5681 5680 5679 5678 5677 5677 5676 5675 5674 5673 5672 5671 5670 5669 5668 5667 5666 5665 5664 5663 5662 5661 5660 5659 5658 5657 5656 5654 5653 5652 5652 5651 5650 5649
5710 5709 5709 5708 5708 5707 5706 5705 5704 5704 5703 5702 5701 5700 5699 5698 5697 5696 5694 5693 5692 5691 5689 5688 5687 5686 5685 5684 5683 5683 5682 5681 5680 5679 5678 5677 5676 5675 5674 5673 5673 5672 5671 5670 5669 5668 5667 5666 5665 5664 5663 5662 5661 5660 5659 5658 5657 5656 5655 5654 5653 5652 5650 5649 5648 5648 5647 5646 5645
5706 5706 5705 5705 5704 5703 5703 5702 5701 5700 5699 5698 5698 5697 5695 5694 5693 5692 5691 5690 5688 5687 5686 5685 5684 5683 5682 5681 5680 5679 5678 5677 5676 5675 5674 5673 5673 5672 5671 5670 5669 5668 5667 5666 5665 5664 5663 5662 5661 5660 5659 5658 5657 5656 5655 5654 5653 5652 5651 5650 5648 5648 5646 5645 5644 5643 5643 5642 5641
5703 5702 5701 5701 5700 5699 5699 5698 5697 5696 5696 5695 5694 5693 5692 5691 5689 5688 5687 5686 5685 5684 5683 5682 5680 5679 5678 5678 5677 5676 5675 5673 5673 5672 5671 5670 5669 5668 5667 5666 5665 5664 5663 5662 5661 5660 5658 5658 5657 5655 5654 5653 5653 5652 5650 5649 5648 5648 5646 5645 5644 5643 5642 5641 5640 5639 5638 5638 5637
5699 5698 5698 5697 5696 5695 5695 5694 5693 5693 5692 5691 5690 5689 5688 5687 5686 5685 5684 5683 5682 5680 5679 5678 5677 5676 5675 5674 5673 5672 5671 5670 5669 5668 5667 5666 5665 5664 5663 5662 5661 5660 5658 5658 5657 5655 5654 5653 5653 5651 5650 5649 5648 5647 5646 5645 5644 5643 5642 5641 5640 5639 5638 5637 5636 5635 5634 5633 5633
5695 5694 5693 5693 5692 5691 5691 5690 5689 5688 5688 5687 5686 5685 5684 5683 5682 5681 5680 5679 5678 5677 5676 5674 5673 5673 5671 5670 5669 5668 5668 5666 5665 5664 5663 5662 5661 5660 5659 5658 5657 5655 5654 5653 5652 5651 5650 5649 5648 5647 5646 5645 5644 5643 5642 5641 5640 5639 5638 5637 5636 5635 5634 5633 5632 5631 5630 5629 5628
5691 5690 5689 5688 5688 5687 5687 5686 5685 5684 5683 5683 5682 5681 5680 5679 5678 5677 5676 5675 5674 5673 5672 5671 5670 5669 5668 5667 5665 5664 5663 5663 5662 5660 5659 5658 5657 5656 5655 5653 5653 5651 5650 5649 5648 5647 5646 5645 5644 5643 5642 5641 5640 5639 5638 5637 5636 5635 5634 5633 5632 5631 5630 5629 5628 5627 5626 5625 5624
5686 5686 5685 5684 5683 5683 5682 5682 5681 5680 5679 5678 5678 5677 5676 5675 5674 5673 5672 5671 5670 5669 5668 5667 5666 5665 5664 5663 5662 5661 5659 5659 5658 5657 5655 5654 5653 5652 5651 5649 5648 5647 5646 5645 5644 5643 5642 5641 5640 5639 5638 5637 5636 5635 5634 5633 5632 5631 5630 5629 5628 5627 5626 5625 5624 5623 5622 5621 5620
5682 5681 5680 5680 5679 5679 5678 5677 5676 5675 5675 5674 5673 5673 5672 5671 5670 5669 5668 5667 5666 5665 5664 5663 5662 5661 5660 5658 5658 5657 5655 5654 5653 5652 5651 5650 5649 5648 5646 5645 5644 5643 5642 5641 5640 5639 5638 5637 5636 5635 5634 5633 5632 5631 5630 5629 5628 5627 5626 5625 5624 5623 5622 5621 5620 5619 5618 5616 5615
5678 5677 5676 5676 5675 5674 5674 5673 5672 5671 5670 5669 5669 5668 5667 5666 5665 5664 5663 5663 5662 5661 5660 5659 5658 5657 5655 5654 5653 5652 5651 5650 5649 5648 5647 5646 5644 5643 5642 5641 5640 5638 5638 5637 5636 5634 5633 5633 5632 5631 5630 5628 5628 5627 5626 5625 5624 5623 5622 5621 5620 5619 5618 5617 5615 5614 5613 5612 5611
5673 5672 5672 5671 5671 5670 5669 5668 5668 5667 5666 5665 5664 5663 5663 5662 5661 5660 5659 5658 5658 5657 5656 5654 5653 5652 5651 5650 5649 5648 5647 5646 5645 5644 5643 5641 5640 5639 5638 5636 5635 5634 5633 5632 5631 5630 5629 5628 5628 5627 5626 5624 5623 5623 5622 5621 5620 5619 5618 5617 5616 5615 5613 5612 5611 5610 5609 5607 5606
5669 5668 5667 5667 5666 5666 5665 5664 5663 5663 5662 5661 5660 5659 5658 5658 5657 5656 5655 5654 5653 5652 5651 5650 5649 5648 5647 5646 5644 5643 5642 5641 5640 5639 5638 5637 5636 5634 5633 5632 5631 5630 5628 5628 5627 5626 5625 5624 5623 5622 5621 5620 5619 5618 5618 5617 5616 5615 5614 5613 5612 5610 5609 5608 5607 5605 5604 5603 5601
5664 5663 5663 5662 5662 5661 5661 5660 5659 5658 5658 5657 5656 5655 5654 5653 5652 5652 5651 5650 5649 5648 5647 5646 5645 5643 5643 5641 5640 5639 5638 5637 5636 5634 5633 5632 5631 5630 5628 5627 5626 5625 5624 5623 5622 5622 5621 5620 5619 5618 5617 5616 5615 5614 5613 5612 5612 5610 5609 5608 5607 5606 5605 5603 5602 5601 5600 5598 5597
5660 5659 5658 5658 5658 5657 5657 5656 5655 5654 5653 5652 5651 5650 5649 5649 5648 5647 5646 5645 5644 5643 5643 5642 5640 5639 5638 5637 5636 5634 5633 5632 5631 5630 5628 5627 5626 5625 5624 5623 5622 5621 5620 5619 5618 5617 5617 5616 5615 5614 5613 5612 5611 5610 5609 5608 5607 5606 5605 5604 5603 5602 5601 5599 5598 5597 5595 5594 5592
5655 5654 5654 5653 5653 5653 5652 5652 5651 5650 5649 5648 5647 5646 5645 5644 5643 5643 5642 5641 5640 5639 5638 5637 5636 5635 5633 5632 5631 5630 5629 5628 5626 5625 5624 5623 5622 5620 5619 5618 5617 5616 5615 5614 5614 5613 5612 5611 5610 5609 5608 5608 5607 5606 5605 5604 5603 5602 5601 5600 5598 5597 5596 5595 5594 5592 5591 5589 5588
5650 5650 5649 5649 5649 5649 5648 5647 5646 5645 5644 5643 5643 5642 5641 5640 5639 5638 5637 5636 5636 5635 5633 5633 5631 5630 5629 5628 5627 5625 5624 5623 5622 5621 5619 5618 5617 5616 5615 5614 5613 5612 5611 5610 5609 5608 5608 5607 5606 5605 5604 5603 5602 5601 5600 5599 5598 5597 5596 5595 5594 5593 5592 5590 5589 5588 5586 5585 5583
5646 5645 5645 5645 5645 5644 5644 5643 5642 5641 5640 5639 5638 5637 5636 5635 5634 5634 5633 5632 5631 5630 5629 5628 5627 5626 5624 5623 5622 5621 5620 5618 5617 5616 5615 5614 5613 5611 5610 5609 5608 5607 5607 5606 5605 5604 5603 5602 5601 5600 5600 5599 5598 5597 5596 5595 5594 5593 5592 5590 5589 5588 5587 5586 5584 5583 5582 5580 5578
5641 5641 5641 5641 5641 5640 5639 5639 5638 5637 5636 5635 5634 5633 5632 5631 5630 5629 5628 5628 5627 5626 5624 5623 5622 5621 5620 5618 5617 5616 5615 5614 5613 5612 5610 5609 5608 5607 5606 5605 5604 5603 5602 5601 5600 5600 5599 5598 5597 5596 5595 5594 5593 5593 5592 5591 5590 5588 5587 5586 5585 5583 5582 5581 5580 5578 5577 5575 5574
5637 5636 5636 5636 5636 5636 5635 5634 5633 5632 5631 5630 5630 5629 5628 5627 5626 5625 5624 5623 5622 5621 5619 5618 5617 5616 5615 5614 5613 5611 5610 5609 5608 5607 5606 5605 5603 5603 5601 5600 5599 5598 5598 5597 5596 5595 5594 5593 5592 5591 5590 5589 5589 5588 5587 5587 5585 5584 5583 5582 5580 5579 5578 5576 5575 5573 5572 5570 5569
5632 5632 5632 5632 5632 5632 5631 5630 5629 5628 5627 5626 5625 5624 5624 5623 5622 5621 5619 5618 5617 5616 5614 5613 5612 5611 5610 5609 5608 5607 5605 5604 5603 5602 5601 5600 5599 5598 5597 5596 5595 5594 5593 5593 5592 5591 5590 5589 5588 5587 5586 5585 5584 5583 5583 5582 5581 5580 5578 5577 5576 5574 5573 5572 5570 5569 5567 5565 5564
5628 5628 5627 5627 5628 5627 5627 5626 5625 5623 5623 5622 5621 5620 5619 5618 5617 5616 5615 5613 5613 5611 5610 5608 5607 5606 5605 5604 5603 5602 5601 5600 5599 5598 5597 5596 5595 5594 5593 5592 5591 5590 5589 5588 5587 5586 5585 5584 5583 5582 5581 5580 5579 5579 5578 5577 5576 5575 5574 5573 5571 5570 5568 5567 5565 5563 5562 5560 5558
5624 5623 5623 5623 5623 5623 5622 5621 5620 5619 5618 5618 5617 5616 5615 5614 5613 5611 5610 5609 5608 5606 5605 5603 5602 5601 5600 5599 5598 5597 5596 5595 5594 5593 5593 5592 5591 5590 5588 5588 5587 5586 5585 5584 5583 5582 5581 5580 5579 5578 5577 5576 5575 5574 5573 5572 5571 5570 5569 5568 5566 5565 5563 5562 5560 5558 5557 5555 5553
5620 5619 5618 5618 5618 5618 5618 5617 5616 5615 5614 5613 5612 5611 5610 5609 5608 5606 5605 5604 5603 5602 5600 5599 5598 5597 5596 5594 5594 5593 5592 5591 5590 5589 5588 5588 5587 5585 5584 5583 5582 5582 5581 5580 5578 5578 5577 5576 5574 5573 5573 5572 5571 5570 5569 5568 5567 5566 5564 5563 5562 5560 5558 5556 5555 5553 5551 5549 5547
5615 5615 5614 5614 5614 5614 5613 5612 5611 5610 5609 5608 5607 5606 5605 5604 5603 5602 5600 5599 5598 5597 5595 5594 5593 5592 5591 5590 5589 5588 5588 5587 5586 5585 5584 5583 5582 5581 5580 5579 5578 5577 5576 5575 5574 5573 5572 5571 5570 5569 5568 5567 5566 5565 5564 5563 5562 5561 5559 5558 5557 5555 5553 5551 5549 5548 5546 5543 5541
5611 5611 5610 5610 5609 5609 5608 5607 5606 5605 5604 5603 5602 5601 5600 5599 5598 5597 5596 5595 5593 5592 5591 5590 5589 5588 5587 5586 5585 5584 5583 5583 5582 5581 5580 5579 5578 5577 5576 5575 5574 5573 5572 5571 5570 5569 5568 5567 5565 5564 5563 5562 5561 5560 5559 5558 5557 5556 5554 5553 5551 5549 5548 5546 5544 5542 5540 5538 5535
5607 5606 5606 5605 5604 5604 5603 5602 5601 5600 5599 5598 5597 5596 5595 5594 5593 5592 5591 5590 5589 5588 5586 5585 5585 5584 5583 5582 5581 5580 5579 5578 5578 5577 5576 5575 5574 5573 5572 5571 5569 5568 5568 5567 5565 5564 5563 5562 5561 5559 5558 5557 5556 5555 5554 5553 5552 5550 5549 5548 5546 5544 5542 5540 5538 5536 5534 5532 5530
5602 5602 5601 5600 5599 5598 5598 5597 5596 5595 5594 5593 5592 5591 5590 5589 5588 5587 5586 5585 5584 5583 5582 5581 5580 5579 5578 5578 5577 5576 5575 5574 5573 5573 5572 5570 5569 5569 5568 5566 5565 5564 5563 5562 5561 5559 5558 5557 5555 5554 5553 5552 5551 5550 5549 5548 5546 5545 5543 5542 5540 5538 5536 5534 5533 5531 5528 5526 5524
5597 5596 5596 5595 5594 5593 5592 5591 5590 5589 5588 5588 5587 5586 5585 5584 5583 5582 5581 5580 5579 5578 5578 5577 5576 5575 5574 5573 5573 5572 5571 5570 5569 5568 5568 5566 5565 5564 5563 5562 5560 5559 5558 5557 5556 5554 5553 5552 5550 5549 5548 5546 5545 5544 5543 5542 5540 5539 5538 5536 5534 5532 5530 5528 5527 5525 5523 5520 5518
5592 5591 5591 5590 5589 5588 5587 5586 5585 5584 5583 5583 5582 5581 5580 5579 5578 5577 5576 5576 5575 5574 5573 5573 5571 5570 5570 5569 5568 5568 5567 5565 5564 5564 5563 5562 5561 5559 5558 5557 5556 5554 5553 5552 5551 5549 5548 5546 5545 5543 5542 5541 5539 5538 5537 5536 5535 5533 5531 5530 5528 5526 5525 5523 5521 5519 5517 5515 5512